Tracking 31027 objects as of 19-Jul-2025
HD Live streaming from Space Station
objects crossing your sky now

SPIP

Track SPIP now!
10-day predictions


NORAD ID: 58298
Int'l Code: 2023-174AU
Perigee: 496.4 km
Apogee: 508.2 km
Inclination: 97.4 °
Period: 94.5 minutes
Semi major axis: 6873 km
RCS: Unknown
Launch date: November 11, 2023
Source: (BEL)
Launch site: AIR FORCE WESTERN TEST RANGE (AFWTR)
Your satellite tracking list
STARLINK-3957
Track 1 satellite(s)




NASA's NSSDC Master Catalog

Two Line Element Set (TLE):
1 58298U 23174AU  25199.91469326  .00003970  00000-0  16898-3 0  9999
2 58298  97.4194 274.8830 0008558 283.2510  76.7772 15.23544584 93961
Source of the keplerian elements: AFSPC